Weather History for Lacon, IL

Change the Weather History Date:

Wednesday, October 12, 2011

  Actual Average (KPIA) Record (KPIA)
Temperature  
Mean Temperature 68 °F 55 °F  
Max Temperature 78 °F 66 °F 86 °F (1890)
Min Temperature 59 °F 45 °F 25 °F (1987)
Degree Days  
Heating Degree Days 0 10  
Month to date heating degree days 104  
Since 1 July heating degree days 194  
Cooling Degree Days 4 1  
Month to date cooling degree days 12  
Year to date cooling degree days 1036  
Growing Degree Days 18 (Base 50)    
Moisture  
Dew Point 57 °F    
Average Humidity 72    
Maximum Humidity 88    
Minimum Humidity 44    
Precipitation  
Precipitation 0.00 in 0.09 in 1.52 in (1973)
Month to date precipitation 1.05  
Year to date precipitation 29.15  
Snow  
Snow 0.00 in 0.00 in T in (1909)
Month to date snowfall 0.0  
Since 1 July snowfall 0.0  
Since 1 September snowfall 0.0  
Snow Depth -    
Sea Level Pressure  
Sea Level Pressure 29.78 in    
Wind  
Wind Speed 2 mph (SSE)    
Max Wind Speed 13 mph    
Max Gust Speed 18 mph    
Visibility 10 miles    
Events Rain , Thunderstorm    
T = Trace of Precipitation, MM = Missing Value Source: NWS Daily Summary

Daily Weather History Graph

Daily Weather History Graph

Search for Another Location

Airport:

Trip Planner

Search our weather history database for the weather conditions in past years. The results will help you decide how hot, cold, wet, or windy it might be!

Date:

Astronomy

Oct. 12, 2011 Rise Set
Actual Time 7:05 AM CDT 6:21 PM CDT
Civil Twilight 6:37 AM CDT 6:49 PM CDT
Nautical Twilight 6:06 AM CDT 7:21 PM CDT
Astronomical Twilight 5:34 AM CDT 7:53 PM CDT
Moon 6:23 PM CDT (10/12) 7:41 AM CDT (10/12)
Length of Visible Light 12h 11m
Length of Day
11h 16m
Full, 100% of the Moon is Illuminated
Oct 12
Full
Oct 19
Last Quarter
Oct 26
New
Nov 2
First Quarter
Nov 10
Full

Hourly Weather History & Observations

Time (CDT) Temp. Dew Point Humidity Pressure Visibility Wind Dir Wind Speed Gust Speed Precip Events Conditions
12:15 AM 64.4 °F 59.0 °F 83% 29.87 in 10.0 mi Calm Calm - N/A   Mostly Cloudy
12:35 AM 64.4 °F 59.0 °F 83% 29.87 in 10.0 mi Calm Calm - N/A   Mostly Cloudy
12:55 AM 62.6 °F 57.2 °F 82% 29.87 in 10.0 mi Calm Calm - N/A   Scattered Clouds
1:15 AM 59.0 °F 55.4 °F 88% 29.87 in 10.0 mi Calm Calm - N/A   Clear
1:35 AM 60.8 °F 55.4 °F 82% 29.87 in 10.0 mi Calm Calm - N/A   Clear
1:55 AM 60.8 °F 55.4 °F 82% 29.87 in 10.0 mi Calm Calm - N/A   Clear
2:15 AM 62.6 °F 53.6 °F 72% 29.87 in 10.0 mi Calm Calm - N/A   Scattered Clouds
2:35 AM 62.6 °F 53.6 °F 72% 29.86 in 10.0 mi SE 3.5 mph - N/A   Scattered Clouds
2:55 AM 59.0 °F 53.6 °F 82% 29.86 in 10.0 mi Calm Calm - N/A   Scattered Clouds
3:15 AM 60.8 °F 53.6 °F 77% 29.85 in 10.0 mi Calm Calm - N/A   Scattered Clouds
3:35 AM 60.8 °F 53.6 °F 77% 29.84 in 10.0 mi ESE 3.5 mph - N/A   Scattered Clouds
3:55 AM 60.8 °F 53.6 °F 77% 29.84 in 10.0 mi Calm Calm - N/A   Clear
4:15 AM 60.8 °F 51.8 °F 72% 29.84 in 10.0 mi SSE 3.5 mph - N/A   Scattered Clouds
4:35 AM 60.8 °F 51.8 °F 72% 29.83 in 10.0 mi SE 5.8 mph - N/A   Clear
4:55 AM 60.8 °F 51.8 °F 72% 29.83 in 10.0 mi Calm Calm - N/A   Mostly Cloudy
5:15 AM 60.8 °F 51.8 °F 72% 29.83 in 10.0 mi SE 3.5 mph - N/A   Scattered Clouds
5:35 AM 59.0 °F 51.8 °F 77% 29.82 in 10.0 mi ESE 3.5 mph - N/A   Clear
5:55 AM 59.0 °F 51.8 °F 77% 29.83 in 10.0 mi SSE 4.6 mph - N/A   Clear
6:15 AM 59.0 °F 51.8 °F 77% 29.82 in 10.0 mi SSE 3.5 mph - N/A   Clear
6:35 AM 59.0 °F 51.8 °F 77% 29.83 in 10.0 mi SE 3.5 mph - N/A   Clear
6:55 AM 59.0 °F 51.8 °F 77% 29.83 in 10.0 mi Calm Calm - N/A   Clear
7:15 AM 59.0 °F 51.8 °F 77% 29.82 in 10.0 mi Calm Calm - N/A   Clear
7:35 AM 59.0 °F 53.6 °F 82% 29.83 in 10.0 mi SE 3.5 mph - N/A   Scattered Clouds
7:55 AM 59.0 °F 53.6 °F 82% 29.82 in 10.0 mi East 3.5 mph - N/A   Overcast
8:15 AM 60.8 °F 53.6 °F 77% 29.83 in 10.0 mi SE 3.5 mph - N/A   Mostly Cloudy
8:35 AM 60.8 °F 53.6 °F 77% 29.82 in 10.0 mi Calm Calm - N/A   Mostly Cloudy
8:55 AM 62.6 °F 55.4 °F 77% 29.82 in 10.0 mi SE 5.8 mph - N/A   Mostly Cloudy
9:15 AM 64.4 °F 55.4 °F 73% 29.81 in 10.0 mi SSE 4.6 mph - N/A   Scattered Clouds
9:35 AM 64.4 °F 55.4 °F 73% 29.81 in 10.0 mi SSE 6.9 mph - N/A   Mostly Cloudy
9:55 AM 68.0 °F 55.4 °F 64% 29.80 in 10.0 mi SE 4.6 mph - N/A   Scattered Clouds
10:15 AM 68.0 °F 57.2 °F 68% 29.80 in 10.0 mi SSE 4.6 mph - N/A   Clear
10:35 AM 69.8 °F 55.4 °F 60% 29.80 in 10.0 mi SE 4.6 mph - N/A   Clear
10:55 AM 71.6 °F 57.2 °F 60% 29.79 in 10.0 mi SSE 5.8 mph - N/A   Clear
11:15 AM 73.4 °F 57.2 °F 57% 29.79 in 10.0 mi SSE 4.6 mph - N/A   Clear
11:35 AM 75.2 °F 57.2 °F 53% 29.78 in 10.0 mi SE 3.5 mph - N/A   Clear
11:55 AM 77.0 °F 57.2 °F 50% 29.77 in 10.0 mi SSE 5.8 mph - N/A   Clear
12:15 PM 77.0 °F 57.2 °F 50% 29.76 in 10.0 mi SE 6.9 mph - N/A   Clear
12:35 PM 77.0 °F 55.4 °F 47% 29.75 in 10.0 mi South 8.1 mph - N/A   Clear
12:55 PM 77.0 °F 57.2 °F 50% 29.75 in 10.0 mi South 6.9 mph - N/A Thunderstorm Clear
1:15 PM 77.0 °F 57.2 °F 50% 29.73 in 10.0 mi SSE 6.9 mph - N/A   Clear
1:35 PM 78.8 °F 55.4 °F 44% 29.73 in 10.0 mi South 9.2 mph - N/A   Clear
1:55 PM 77.0 °F 57.2 °F 50% 29.72 in 10.0 mi South 8.1 mph - N/A   Scattered Clouds
2:15 PM 75.2 °F 59.0 °F 57% 29.71 in - SSW 4.6 mph - N/A   Unknown
2:35 PM 73.4 °F 59.0 °F 61% 29.72 in 10.0 mi SW 12.7 mph 18.4 mph N/A   Mostly Cloudy
2:55 PM 69.8 °F 60.8 °F 73% 29.71 in 10.0 mi SW 5.8 mph - N/A   Overcast
3:15 PM 69.8 °F 62.6 °F 78% 29.70 in 10.0 mi Calm Calm - N/A   Light Drizzle
3:35 PM 68.0 °F 62.6 °F 83% 29.70 in 7.0 mi SSW 4.6 mph - N/A Rain Light Rain
3:55 PM 68.0 °F 62.6 °F 83% 29.69 in 10.0 mi SW 4.6 mph - N/A   Mostly Cloudy
4:15 PM 68.0 °F 62.6 °F 83% 29.68 in 10.0 mi Calm Calm - N/A   Overcast
4:35 PM 68.0 °F 62.6 °F 83% 29.68 in 10.0 mi Calm Calm - N/A   Mostly Cloudy
4:55 PM 69.8 °F 62.6 °F 78% 29.67 in 10.0 mi Calm Calm - N/A   Mostly Cloudy
5:15 PM 69.8 °F 60.8 °F 73% 29.67 in 10.0 mi SSE 3.5 mph - N/A   Mostly Cloudy
5:35 PM 69.8 °F 62.6 °F 78% 29.67 in 10.0 mi Calm Calm - N/A Rain Light Rain
5:55 PM 69.8 °F 62.6 °F 78% 29.67 in 7.0 mi Calm Calm - N/A Rain Light Rain
6:15 PM 68.0 °F 62.6 °F 83% 29.67 in 10.0 mi Calm Calm - N/A Rain Light Rain
6:35 PM 68.0 °F 62.6 °F 83% 29.67 in 10.0 mi Calm Calm - N/A   Overcast
6:55 PM 66.2 °F 60.8 °F 83% 29.67 in 10.0 mi Calm Calm - N/A   Overcast
7:15 PM 68.0 °F 60.8 °F 78% 29.67 in 10.0 mi Calm Calm - N/A   Overcast
7:35 PM 68.0 °F 60.8 °F 78% 29.66 in 10.0 mi SE 3.5 mph - N/A Rain Rain
7:55 PM 68.0 °F 60.8 °F 78% 29.66 in 10.0 mi SE 4.6 mph - N/A   Overcast
8:15 PM 68.0 °F 60.8 °F 78% 29.66 in 10.0 mi SE 4.6 mph - N/A   Overcast
8:35 PM 68.0 °F 59.0 °F 73% 29.66 in 10.0 mi SSE 6.9 mph - N/A   Overcast
8:55 PM 68.0 °F 59.0 °F 73% 29.66 in 10.0 mi SSE 5.8 mph - N/A   Mostly Cloudy
9:15 PM 68.0 °F 60.8 °F 78% 29.65 in 10.0 mi SSE 6.9 mph - N/A   Overcast
9:35 PM 66.2 °F 60.8 °F 83% 29.65 in 10.0 mi SE 4.6 mph - N/A   Scattered Clouds
9:55 PM 66.2 °F 60.8 °F 83% 29.64 in 10.0 mi SSE 5.8 mph - N/A   Scattered Clouds
10:15 PM 66.2 °F 60.8 °F 83% 29.64 in 10.0 mi SSE 8.1 mph - N/A   Scattered Clouds
10:35 PM 66.2 °F 60.8 °F 83% 29.63 in 10.0 mi SSE 8.1 mph - N/A   Mostly Cloudy
10:55 PM 68.0 °F 60.8 °F 78% 29.63 in 10.0 mi South 5.8 mph - N/A   Scattered Clouds
11:15 PM 66.2 °F 60.8 °F 83% 29.64 in 10.0 mi South 5.8 mph - N/A Rain Rain
11:35 PM 66.2 °F 60.8 °F 83% 29.64 in 10.0 mi South 5.8 mph - N/A Rain Rain
11:55 PM 64.4 °F 60.8 °F 88% 29.63 in 7.0 mi SSW 6.9 mph - N/A Rain Light Rain